Back to catalog

HAWK-5A

AliveMilitaryPO
NORAD 52757·PAYLOAD·🇺🇸 United States

Launched May 25, 2022 from Cape Canaveral Space Force Station

Loading…

Next Passes (next 24 hours)

TLE

FreshSource: Space-Track

Epoch: Sep 14, 2026, 10:08 UTC

1 52757U 22057AB  26257.42262136  .00015557  00000-0  23983-3 0  9991
2 52757  97.6693  62.2895 0005449 100.5387 259.6480 15.54251984240190

Track HAWK-5A in real time with AllMySat

Download on the App Store